Middlesboro, KY

10:54 AM CDT on June 23, 2017 (GMT -0500)
Middlesboro

Weather History for K1A6 - September, 2013

Change the Weather History Date:

Tuesday, September 24, 2013

  Actual Average (KLOZ) Record (KLOZ)
Temperature  
Mean Temperature 66 °F -  
Max Temperature 78 °F 73 °F 94 °F (2007)
Min Temperature 56 °F 53 °F 32 °F (1983)
Cooling Degree Days 2    
Growing Degree Days 16 (Base 50)    
Moisture  
Dew Point 59 °F    
Average Humidity 82    
Maximum Humidity 100    
Minimum Humidity 48    
Precipitation  
Precipitation 0.00 in - - ()
Sea Level Pressure  
Sea Level Pressure 30.01 in    
Wind  
Wind Speed 0 mph (SSE)    
Max Wind Speed 5 mph    
Max Gust Speed -    
Visibility 8 miles    
Events Fog    
Averages and records for this station are not official NWS values.
T = Trace of Precipitation, MM = Missing Value Source: NWS Daily Summary

Daily Weather History Graph

Daily Weather History Graph

Search for Another Location

Airport or City:

Trip Planner

Search our weather history database for the weather conditions in past years. The results will help you decide how hot, cold, wet, or windy it might be!

Date:

Astronomy

Sep. 24, 2013 Rise Set
Actual Time 6:24 AM CDT 6:28 PM CDT
Civil Twilight 5:58 AM CDT 6:54 PM CDT
Nautical Twilight 5:28 AM CDT 7:24 PM CDT
Astronomical Twilight 4:58 AM CDT 7:54 PM CDT
Moon 9:53 PM CDT (9/24) 11:30 AM CDT (9/24)
Length of Visible Light 12h 55m
Length of Day
12h 03m
Waning Gibbous, 73% of the Moon is Illuminated
Sep 24
Waning Gibbous
Sep 26
Last Quarter
Oct 4
New
Oct 11
First Quarter
Oct 18
Full

Hourly Weather History & Observations

Time (CDT) Temp. Dew Point Humidity Pressure Visibility Wind Dir Wind Speed Gust Speed Precip Events Conditions
12:15 AM 57.2 °F 57.2 °F 100% 30.06 in 0.2 mi Calm Calm - N/A Fog Fog
12:35 AM 56.8 °F 56.8 °F 100% 30.06 in 0.5 mi Calm Calm - N/A Fog Fog
12:55 AM 56.7 °F 56.7 °F 100% 30.07 in 1.5 mi Calm Calm - N/A   Overcast
1:15 AM 56.8 °F 56.8 °F 100% 30.07 in 0.5 mi Calm Calm - N/A Fog Fog
1:35 AM 56.7 °F 56.7 °F 100% 30.07 in 0.2 mi Calm Calm - N/A Fog Fog
1:55 AM 56.5 °F 56.5 °F 100% 30.07 in 7.0 mi Calm Calm - N/A   Overcast
2:35 AM 56.7 °F 56.7 °F 100% 30.07 in 7.0 mi Calm Calm - N/A   Overcast
2:55 AM 56.5 °F 56.5 °F 100% 30.07 in 4.0 mi Calm Calm - N/A   Overcast
3:15 AM 56.7 °F 56.7 °F 100% 30.07 in 7.0 mi Calm Calm - N/A   Overcast
3:35 AM 56.7 °F 56.7 °F 100% 30.07 in 7.0 mi Calm Calm - N/A   Overcast
3:55 AM 56.7 °F 56.7 °F 100% 30.07 in 2.5 mi Calm Calm - N/A   Overcast
4:35 AM 56.5 °F 56.5 °F 100% 30.07 in 0.2 mi Calm Calm - N/A Fog Fog
4:55 AM 56.8 °F 56.8 °F 100% 30.07 in 0.5 mi Calm Calm - N/A Fog Fog
5:15 AM 56.8 °F 56.8 °F 100% 30.08 in 1.0 mi Calm Calm - N/A   Overcast
5:35 AM 56.8 °F 56.8 °F 100% 30.08 in 7.0 mi Calm Calm - N/A   Overcast
5:55 AM 57.0 °F 57.0 °F 100% 30.09 in 1.5 mi Calm Calm - N/A   Overcast
6:15 AM 57.0 °F 57.0 °F 100% 30.09 in 0.5 mi Calm Calm - N/A Fog Fog
6:35 AM 57.2 °F 57.2 °F 100% 30.09 in 0.2 mi Calm Calm - N/A Fog Fog
6:55 AM 56.7 °F 56.7 °F 100% 30.10 in 0.2 mi Calm Calm - N/A Fog Fog
7:15 AM 57.0 °F 57.0 °F 100% 30.10 in 0.2 mi Calm Calm - N/A Fog Fog
7:35 AM 57.2 °F 57.2 °F 100% 30.09 in 0.5 mi Calm Calm - N/A Fog Fog
7:55 AM 57.2 °F 57.2 °F 100% 30.10 in 2.0 mi Calm Calm - N/A   Overcast
8:15 AM 57.4 °F 57.4 °F 100% 30.10 in 3.0 mi Calm Calm - N/A   Overcast
8:35 AM 58.1 °F 57.6 °F 98% 30.09 in 10.0 mi Calm Calm - N/A   Overcast
8:55 AM 58.3 °F 57.7 °F 98% 30.09 in 10.0 mi Calm Calm - N/A   Overcast
9:15 AM 60.1 °F 58.5 °F 94% 30.09 in 10.0 mi Calm Calm - N/A   Overcast
9:35 AM 61.9 °F 59.7 °F 93% 30.09 in 10.0 mi Calm Calm - N/A   Mostly Cloudy
9:55 AM 63.5 °F 59.9 °F 88% 30.08 in 10.0 mi Calm Calm - N/A   Scattered Clouds
10:15 AM 65.1 °F 59.5 °F 82% 30.07 in 10.0 mi Calm Calm - N/A   Clear
10:35 AM 66.6 °F 60.3 °F 80% 30.07 in 10.0 mi Calm Calm - N/A   Clear
10:55 AM 70.9 °F 61.2 °F 71% 30.06 in 10.0 mi Calm Calm - N/A   Clear
11:15 AM 73.2 °F 60.6 °F 65% 30.05 in 10.0 mi ENE 3.5 mph - N/A   Clear
11:35 AM 74.8 °F 59.7 °F 59% 30.04 in 10.0 mi ESE 4.6 mph - N/A   Clear
11:55 AM 73.6 °F 57.9 °F 58% 30.02 in 10.0 mi Calm Calm - N/A   Clear
12:15 PM 74.1 °F 57.7 °F 56% 30.02 in 10.0 mi East 3.5 mph - N/A   Scattered Clouds
12:55 PM 76.8 °F 58.6 °F 53% 30.01 in 10.0 mi SE 3.5 mph - N/A   Mostly Cloudy
1:15 PM 75.4 °F 58.3 °F 55% 30.00 in 10.0 mi Calm Calm - N/A   Mostly Cloudy
1:35 PM 76.3 °F 57.4 °F 52% 29.98 in 10.0 mi ESE 3.5 mph - N/A   Scattered Clouds
1:55 PM 77.2 °F 57.4 °F 50% 29.97 in 10.0 mi East 3.5 mph - N/A   Clear
2:15 PM 77.0 °F 56.8 °F 50% 29.97 in 10.0 mi South 3.5 mph - N/A   Clear
2:35 PM 77.4 °F 56.7 °F 49% 29.97 in 10.0 mi South 3.5 mph - N/A   Clear
2:55 PM 77.2 °F 56.3 °F 48% 29.96 in 10.0 mi SSE 4.6 mph - N/A   Scattered Clouds
3:15 PM 77.7 °F 56.7 °F 48% 29.95 in 10.0 mi SSE 3.5 mph - N/A   Scattered Clouds
3:35 PM 76.6 °F 57.0 °F 51% 29.95 in 10.0 mi Calm Calm - N/A   Clear
3:55 PM 77.2 °F 57.2 °F 50% 29.94 in 10.0 mi SSE 3.5 mph - N/A   Scattered Clouds
4:15 PM 76.3 °F 58.6 °F 54% 29.94 in 10.0 mi South 3.5 mph - N/A   Scattered Clouds
4:35 PM 76.6 °F 59.7 °F 56% 29.94 in 10.0 mi South 3.5 mph - N/A   Clear
4:55 PM 75.7 °F 57.9 °F 54% 29.93 in 10.0 mi Calm Calm - N/A   Clear
5:15 PM 73.4 °F 60.8 °F 65% 29.93 in 10.0 mi Calm Calm - N/A   Scattered Clouds
5:35 PM 71.8 °F 62.8 °F 73% 29.93 in 10.0 mi Calm Calm - N/A   Mostly Cloudy
5:55 PM 71.1 °F 63.5 °F 77% 29.93 in 10.0 mi Calm Calm - N/A   Overcast
6:15 PM 70.2 °F 63.0 °F 78% 29.94 in 10.0 mi Calm Calm - N/A   Overcast
6:35 PM 69.8 °F 63.1 °F 79% 29.93 in 10.0 mi West 3.5 mph - N/A   Overcast
6:55 PM 68.9 °F 63.5 °F 83% 29.93 in 10.0 mi Calm Calm - N/A   Overcast
7:15 PM 68.5 °F 63.1 °F 83% 29.94 in 10.0 mi Calm Calm - N/A   Overcast
7:35 PM 68.2 °F 63.1 °F 84% 29.93 in 10.0 mi Calm Calm - N/A   Overcast
7:55 PM 67.5 °F 63.1 °F 86% 29.93 in 10.0 mi Calm Calm - N/A   Overcast
8:15 PM 67.5 °F 62.6 °F 84% 29.94 in 10.0 mi Calm Calm - N/A   Overcast
8:35 PM 67.1 °F 62.6 °F 85% 29.94 in 10.0 mi Calm Calm - N/A   Overcast
8:55 PM 66.7 °F 62.8 °F 87% 29.94 in 10.0 mi Calm Calm - N/A   Overcast
9:15 PM 66.6 °F 62.4 °F 86% 29.94 in 10.0 mi Calm Calm - N/A   Overcast
9:35 PM 66.2 °F 62.6 °F 88% 29.94 in 10.0 mi Calm Calm - N/A   Overcast
9:55 PM 66.0 °F 62.4 °F 88% 29.94 in 10.0 mi Calm Calm - N/A   Overcast
10:15 PM 66.2 °F 62.2 °F 87% 29.94 in 10.0 mi Calm Calm - N/A   Overcast
10:35 PM 65.5 °F 62.6 °F 90% 29.94 in 10.0 mi Calm Calm - N/A   Overcast
10:55 PM 65.3 °F 62.6 °F 91% 29.94 in 10.0 mi Calm Calm - N/A   Overcast
11:15 PM 65.3 °F 63.0 °F 92% 29.93 in 10.0 mi Calm Calm - N/A   Overcast
11:35 PM 65.3 °F 62.8 °F 92% 29.93 in 10.0 mi Calm Calm - N/A   Overcast
11:55 PM 64.9 °F 62.8 °F 93% 29.92 in 10.0 mi Calm Calm - N/A   Overcast